Regional Weather Roundup
Issued by NWS

Current Version | Previous Version | Text Only | Print | Product List | Glossary On
Versions: 1 2 3 4 5 6 7 8 9 10 11 12 13 14 15 16 17 18 19 20 21 22 23 24 25 26 27 28 29 30 31 32 33 34 35 36 37 38 39 40 41 42 43 44 45 46 47 48 49 50
000
ASUS44 KFWD 180810
RWRTX
NORTH TEXAS HOURLY WEATHER ROUNDUP
NATIONAL WEATHER SERVICE FORT WORTH TX
200 AM CST TUE FEB 18 2020

NOTE: "FAIR" INDICATES FEW OR NO CLOUDS BELOW 12,000 FEET WITH NO
SIGNIFICANT WEATHER AND/OR OBSTRUCTIONS TO VISIBILITY.

TXZ118-119-180900-
DALLAS/FORT WORTH METROPLEX

CITY           SKY/WX    TMP DP  RH WIND       PRES   REMARKS
DFW AIRPORT    CLOUDY    61  48  62 N6        29.86R
DALLAS LOVE    CLOUDY    64  48  56 CALM      29.87R
FTW MEACHAM    MOCLDY    56  50  80 NW5       29.87S
DAL-EXECUTIVE  CLOUDY    63  48  58 CALM      29.86S
FTW-ALLIANCE   CLOUDY    57  50  77 N9        29.87S
FTW-NAS-JRB    FAIR      73  49  42 NW7       29.88S
FTW-SPINKS     CLOUDY    59  49  71 NW3       29.89R
ARLINGTON      CLOUDY    63  50  62 NW5       29.87R
GRAND PRAIRIE  CLOUDY    63  46  55 CALM      29.88S
ADDISON        CLOUDY    62  47  58 CALM      29.89R
MESQUITE       CLOUDY    62  56  83 CALM      29.86F
LANCASTER      CLOUDY    62  55  78 CALM      29.88R
$$

TXZ091>094-102>105-117-120-121-131>134-180900-
NORTH CENTRAL TEXAS

CITY           SKY/WX    TMP DP  RH WIND       PRES   REMARKS
SHRMAN/DENISON CLOUDY    58  52  78 N10       29.90F
BOWIE          FAIR      56  52  87 N3        29.91R
BRIDGEPORT     FAIR      51  49  95 CALM      29.92R
DECATUR        FAIR      55  50  81 NE7       29.89S
DENTON         CLOUDY    56  51  84 N6        29.89R
MCKINNEY       CLOUDY    62  49  62 N6        29.87S
BONHAM         CLOUDY    60  52  74 N7        29.89R
GREENVILLE     CLOUDY    63 N/A N/A CALM      29.88R HAZE
ROCKWALL       CLOUDY    63  54  72 CALM      29.87S
TERRELL        FAIR      64  62  93 S3        29.87S FOG
CLEBURNE       CLOUDY    59  50  72 N9        29.89S
GRANBURY       CLOUDY    57  50  77 W6        29.90R
$$

TXZ083>090-098>101-113>116-127>130-139>142-154-155-180900-
WESTERN NORTH TEXAS

CITY           SKY/WX    TMP DP  RH WIND       PRES   REMARKS
WICHITA FALLS  FAIR      48  47  96 N14       29.94R
WF-KICKAPOO    FAIR      51  47  86 N10       29.96R
VERNON         FAIR      48  38  70 N18G26    29.99R
ABILENE        FAIR      49  49 100 NW3       29.94R
ABILENE-DYESS  FAIR      48  43  82 NW5       29.93S
GRAHAM         FAIR      50  48  93 N5        29.90R
BRECKENRIDGE   FAIR      51  51  98 N3        29.92R
CISCO          FAIR      48  46  93 NW7       29.92R
EASTLAND       FAIR      49  47  92 NW6       29.92R
RANGER         MOCLDY    52  48  87 CALM      29.92R
MINERAL WELLS  CLOUDY    54  50  86 NW5       29.88R
STEPHENVILLE   MOCLDY    56  49  78 N6        29.91R
COLEMAN        FAIR      52  46  82 N7        29.91R
BRADY          CLOUDY    55  48  76 N12       29.87S
$$

TXZ143>147-156>162-174-175-180900-
CENTRAL TEXAS

CITY           SKY/WX    TMP DP  RH WIND       PRES   REMARKS
WACO           CLOUDY    66  63  90 S8        29.85S
WACO-MCGREGOR  CLOUDY    68  65  90 S14       29.86R
HILLSBORO      CLOUDY    65  65 100 S5        29.86R
CORSICANA      MOCLDY    67  64  90 S7        29.88R
MEXIA          CLOUDY    68  66  93 S15       29.86S
HEARNE         MOCLDY    67  65  94 SE5       29.89S
CAMERON        CLOUDY    67  65  92 S7        29.87S
TEMPLE         CLOUDY    67  66  97 S13       29.86S
KILLEEN        CLOUDY    67  63  89 S13       29.84S
KILLEEN-SKYLRK CLOUDY    67  64  90 S9        29.86F
FORT HOOD        N/A     67  64  89 S9        29.85F
GATESVILLE     MOCLDY    66  64  94 S7        29.87S
HAMILTON       CLOUDY    59  51  75 NW9       29.89R
$$

TXZ095>097-106>112-122>126-135>138-148>153-164>167-180900-
EAST TEXAS

CITY           SKY/WX    TMP DP  RH WIND       PRES   REMARKS
PARIS          CLOUDY    64  63  96 SE7       29.88R
SULPHUR SPRNGS CLOUDY    65  64  98 CALM      29.89S FOG
MOUNT PLEASANT CLOUDY    67  65  94 CALM      29.90R
MINEOLA        FAIR      66  64  94 S6        29.87S
TYLER          CLOUDY    68  64  87 S10       29.87F
LONGVIEW       FAIR      66  62  87 S8        29.88S
MARSHALL       CLOUDY    65  63  92 S5        29.93R
ATHENS         CLOUDY    68  64  88 S7        29.88R
PALESTINE      FAIR      68  67  95 S8        29.89F
JACKSONVILLE   CLOUDY    67  66  97 S10       29.91S FOG
CENTER         MOCLDY    68  65  89 S10       29.92F
NACOGDOCHES    MOCLDY    67  67 100 S6        29.91F
LUFKIN         CLOUDY    68  65  90 S5        29.91S
$$

SUPPLEMENTAL OBSERVATIONS (NWS FORT WORTH AREA)

CITY           SKY/WX    TMP DP  RH WIND       PRES   REMARKS
CADDO GRASSLND   N/A     57  50  77 VRB2        N/A
LBJ GRASSLAND    N/A     57  50  77 VRB6        N/A
POSSUM KINGDOM   N/A     50  46  87 NW3         N/A
GRANBURY         N/A     55  48  76 W6          N/A
MCGREGOR         N/A     66  63  88 S15         N/A
TEMPLE           N/A     66  64  94 S7          N/A
PALESTINE        N/A     68  64  88 S6G15       N/A
$$

SUPPLEMENTAL OBSERVATIONS (NWS NORMAN AREA)

CITY           SKY/WX    TMP DP  RH WIND       PRES   REMARKS
GOODLETT         N/A     44  32  63 N14       30.01  WCI  37
ODELL            N/A     44  36  73 N13       30.01  WCI  37
CROWELL          N/A     45  40  82 N16       29.99  WCI  38
KNOX CITY        N/A     44  43  96 N5        29.96
SEYMOUR          N/A     46  44  92 NW9       29.95
MILLERS CREEK    N/A     46  45  93 N6          N/A
$$

SUPPLEMENTAL OBSERVATIONS (NWS SAN ANGELO AREA)

CITY           SKY/WX    TMP DP  RH WIND       PRES   REMARKS
WEINERT          N/A     47  44  92 N3        29.95
HASKELL          N/A     47  45  91 N8        29.94
THROCKMORTON     N/A     48  47  96 N5        29.94
STAMFORD         N/A     46  45  95 NW5       29.95
CLYDE            N/A     46  45  97 NW5       29.94
HAMBY            N/A     46  43  87 VRB1        N/A
IVIE RESERVOIR   N/A     55  48  76 VRB2        N/A
COLORADO BEND    N/A     64  63  94 S9          N/A
$$

SUPPLEMENTAL OBSERVATIONS (NWS SHREVEPORT AREA)

CITY           SKY/WX    TMP DP  RH WIND       PRES   REMARKS
TEXARKANA        N/A     66  64  94 S3          N/A
LINDEN           N/A     66  64  94 S3          N/A
LUFKIN           N/A     66  64  94 MISG        N/A
N SABINE NF      N/A     68  64  88 MISG        N/A
$$

SUPPLEMENTAL OBSERVATIONS ARE A COLLECTION OF AUTOMATED INSTRUMENTS
THAT ARE MAINTAINED BY A VARIETY OF FEDERAL AND STATE AGENCIES.
CERTAIN ELEMENTS...SUCH AS HUMIDITY VALUES AND SUSTAINED WIND
SPEEDS...MAY BE APPROXIMATED.




USA.gov is the U.S. government's official web portal to all federal, state and local government web resources and services.